User: anonymous   Login
Location: Wien
(48.2082°N, 16.3738°E)
Time: 09:55:53
(UTC+01:00)
Language:

RS-15 - Orbit

View from above orbital plane
View from above orbital plane
View from above satellite
View from above satellite

Ground track
Ground track

The orbit data is extracted from the following two-line orbital elements,

1 23439U 94085A   19321.88622932 -.00000036 +00000-0 +18125-3 0  9993
2 23439 064.8161 230.0037 0145488 083.4281 278.3181 11.27568658025051
Epoch (UTC): 17 November 2019 21:16:10
Eccentricity: 0.0145488
inclination: 64.8161°
perigee height: 1900 km
apogee height: 2144 km
right ascension of ascending node: 230.0037°
argument of perigee: 83.4281°
revolutions per day: 11.27568658
mean anomaly at epoch: 278.3181°
orbit number at epoch: 2505

The dashed part of the orbit path shows where the satellite is in the earth's shadow,  

DLR